Location: Mount Kobau Star Party
(49.1167°N, 119.7333°W)
Time: 12:31:54
(UTC-07:00)

ARIANE 6 FM1 Upper Stage - Pass Details

Date: 19 April 2026
Orbit: 526 x 601 km, 62.0° (Epoch: 18 May)

Event Time Altitude Azimuth Distance (km) Brightness Sun altitude
Rises 00:12:57 0° 317° (NW) 2,678 7.0 -28.9°
Reaches altitude 10° 00:15:27 10° 331° (NNW) 1,779 6.1 -28.9°
Enters shadow 00:18:36 25° 23° (NNE) 1,080 4.5 -29.0°
